COSMOS 2406

Satellite information

Favourite Embed

Satellite Type and Status

PAYLOADIN ORBIT

Key statistics

Satellite COSMOS 2406 at a glance.

Uptime

7857

Days in orbit

Revolutions

≈ 14.1

Per day

Orbit

LEO

Low Earth Orbit

Inclination

71.0

Latest

Satellite identification and parameters

Extended collection of information and parameters for COSMOS 2406.

Object identification

Identified? True

Debris? False

Object name: COSMOS 2406

International designator: 2004-021A

Object number (NORAD): 28352

Object ID (CCSDS): 28352

Country: COMMONWEALTH OF INDEPENDENT STATES (CIS)

Current information (Y/N): Y

RCS size: LARGE

Orbital parameters

Period: 101.97 minutes

Inclination: 71.0088 deg

SMA: 7230.074 km

Apoapsis: 858.875 km

Periapsis: 845.003 km

RAAN: 131.0712 deg

Eccentricy: 0.00095931

Argument of periapsis: 39.2654 deg

Mean anomaly: 320.9161 deg

Mean motion: 14.12175454 rev/day

Mean motion (dot): -0.00000098 rev/day2

B* drag term: -0.000027502606 1/REarth

Two-line elements (TLE)

Creation date: Dec. 12, 2025, 3:16 a.m.

Reference frame: TEME

Reference center: EARTH

Epoch: Dec. 11, 2025, 7:50 p.m. UTC

TLE line 0: 0 COSMOS 2406

TLE line 1: 1 28352U 04021A 25345.82690689 -.00000098 00000-0 -27503-4 0 9994

TLE line 2: 2 28352 71.0088 131.0712 0009593 39.2654 320.9161 14.12175454108269

Live tracking on map

Real-time ground track for satellite COSMOS 2406.

In-orbit conjunctions

A list of the most updated potential collisions computed for object COSMOS 2406.

Target Orbit TCA Probability of collision Miss distance Type
FENGYUN 1C DEB SSO 2025-09-04 11:58:19 0.0001615568 578.0 (m) DEBRIS
FENGYUN 1C DEB SSO 2025-08-31 23:43:38 0.005361263 36.0 (m) DEBRIS
FENGYUN 1C DEB SSO 2025-05-04 10:42:42 0.000540973 258.0 (m) DEBRIS
FENGYUN 1C DEB SSO 2025-04-04 19:08:38 0.0008256354 76.0 (m) DEBRIS
FENGYUN 1C DEB SSO 2025-01-18 13:05:29 0.0002874291 561.0 (m) DEBRIS

Associated space launch

Second generation ELING satellite

COSMOS 2406 was lifted into orbit during the mission ‘Zenit-2 | Tselina-2 22’, on board a Zenit-2 space rocket.

The launch took place on June 10, 2004, 1:28 a.m. from 45/1.

For more information about the launch, click the button.

Launch to space Zenit-2 | Tselina-2 22
Zenit-2 | Tselina-2 22

Agency: N/A

Status: Launch Successful

Launch date: June 10, 2004, 1:28 a.m. UTC

Rocket: Zenit-2

Launch pad: 45/1

Location: Baikonur Cosmodrome, Republic of Kazakhstan

...

Latest news about this satellite

There are no fresh news available about this satellite. Check back as we update our databases every day.


Newsletter sign-up

Weekly statistics, charts and insights to help you stay on top of the space industry.